NUSAT-1 (FRESCO) (41557 NORAD) Tracking and Keplerian Element Data

This shows tracking and keplerian element data for the satellite.

Feedback or suggestion? Click here.




ElementValue
Catalog41557
NameNUSAT-1 (FRESCO)
Epoch Orbit36145
Epoch Day325.19041302
Epoch Year2022
RAAN63.6115
Inclination97.3897
Eccentricity0.0010215
Argument of Perigee170.3936
Mean Anonmoly279.1774
Mean Motion15.39491473
Decay Rate0.00017673
L11 41557U 16033B 22325.19041302 .00017673 00000+0 45128-3 0 9995
L22 41557 97.3897 63.6115 0010215 170.3936 279.1774 15.39491473361459



Live tracking and technical data element details for NUSAT-1 (FRESCO) (NORAD 41557). NUSAT-1 (FRESCO) can be tracked NOW for your location showing map with azimuth and elevation plus other details from your city location.







IsCatalogInMostPopularTable: catalog: 41557, numindb: 624
Update: records affected: 1



GetName: 41557 NUSAT-1 (FRESCO)

Hit Count: updated at: Fri, 02 Dec 2022 14:00:06 GMT